This is the latest recevied weather packets stored in our database for station/object WI5KEY. If no packets are shown the sender has not sent any weather packets the latest 10 day(s).
| Time | Temp. | Humidity | Pressure | Rain* | Wind** | Luminosity | Snow |
|---|---|---|---|---|---|---|---|
| 1777791670 | 13.89° C | 89% | 1022.4 hPa | 0 mm | - | - | - |
| 1777790760 | 13.89° C | 88% | 1022.5 hPa | 0 mm | - | - | - |
| 1777789859 | 13.89° C | 88% | 1022.5 hPa | 0 mm | - | - | - |
| 1777788957 | 14.44° C | 87% | 1022.5 hPa | 0 mm | - | - | - |
| 1777788113 | 14.44° C | 86% | 1022.4 hPa | 0 mm | - | - | - |
| 1777787151 | 15° C | 84% | 1022.3 hPa | 0 mm | - | - | - |
| 1777786247 | 15° C | 81% | 1022.4 hPa | 0 mm | - | - | - |
| 1777785345 | 15.56° C | 80% | 1022.2 hPa | 0 mm | - | - | - |
| 1777784443 | 15.56° C | 80% | 1022.1 hPa | 0 mm | - | - | - |
| 1777783543 | 15.56° C | 81% | 1022 hPa | 0 mm | - | - | - |
| 1777782643 | 16.11° C | 80% | 1022.3 hPa | 0 mm | - | - | - |
| 1777781740 | 16.67° C | 74% | 1022.4 hPa | 0 mm | - | - | - |
| 1777780847 | 16.67° C | 73% | 1022.1 hPa | 0 mm | - | - | - |
| 1777779954 | 17.22° C | 73% | 1022 hPa | 0 mm | - | - | - |
| 1777779043 | 17.22° C | 72% | 1021.9 hPa | 0 mm | - | - | - |
| 1777778142 | 17.22° C | 71% | 1021.9 hPa | 0 mm | - | - | - |
| 1777777250 | 17.22° C | 70% | 1021.6 hPa | 0 mm | - | - | - |
| 1777776336 | 17.78° C | 68% | 1021.5 hPa | 0 mm | - | - | - |
| 1777775437 | 18.33° C | 65% | 1021.3 hPa | 0 mm | - | - | - |
| 1777774541 | 18.33° C | 64% | 1021 hPa | 0 mm | - | - | - |
| 1777773637 | 18.89° C | 63% | 1020.6 hPa | 0 mm | - | - | - |
| 1777772734 | 19.44° C | 62% | 1020.7 hPa | 0 mm | - | - | - |
| 1777771833 | 20° C | 61% | 1020.6 hPa | 0 mm | - | - | - |
| 1777770935 | 20.56° C | 58% | 1020.4 hPa | 0 mm | - | - | - |
| 1777770032 | 21.11° C | 57% | 1020.4 hPa | 0 mm | - | - | - |
* Rain latest hour (hover to see other rain measurements)
** Current wind speed in m/s (hover to see current wind gust speed)